Flag for United Kingdom Weather past 2 weeks in Telford, England, United Kingdom

Now
39 °F

Passing clouds.


Feels Like: 39 °F
Forecast: 41 / 55 °F
Wind: 2 mph from Southeast

Location: Shawbury


UV Index: 3 (Moderate)

Visibility: N/A


Pressure: 30.36 "Hg

Humidity: 87%

Dew point: 36 °F

Location of TelfordLocation

Historic Weather in Telford

°F

Telford temperature yesterday

Maximum temperature yesterday: 59 °F (at 4:50 PM)
Minimum temperature yesterday: 32 °F (at 6:50 AM)
Average temperature yesterday: 48 °F

Past Weeks' High & Low Weather Summary

 TemperatureHumidityPressure
High61 °F (Apr 6, 3:50 PM)100% (Apr 1, 4:50 AM)30.42 "Hg (Apr 1, 4:50 AM)
Low32 °F (Apr 15, 6:50 AM)38% (Apr 15, 10:50 AM)29.53 "Hg (Apr 2, 5:50 PM)
Average49 °F79%29.96 "Hg
* Reported Apr 1 4:50 AM — Apr 16 4:50 AM, Telford, Weather by CustomWeather, © 2014

Note: Actual official high and low records may vary slightly from our data, if they occured in-between our weather recording intervals... More about our weather records

Advertising

Historic Weather Conditions — Data for Previous 24 hours

 ConditionsComfort  
Time TempWeatherWind HumidityBarometerVisibility
4:50 AM
Apr 16
39 °FPassing clouds.2 mph87%30.36 "HgN/A
3:50 AM41 °FQuite cool.5 mph81%30.36 "HgN/A
2:50 AM39 °FChilly.2 mph81%30.36 "HgN/A
1:50 AM43 °FQuite cool.3 mph76%30.36 "HgN/A
12:50 AM45 °FQuite cool.5 mph71%30.36 "HgN/A
11:50 PM
Apr 15
45 °FQuite cool.3 mph76%30.36 "HgN/A
10:50 PM45 °FQuite cool.3 mph76%30.36 "HgN/A
9:50 PM48 °FCool.3 mph66%30.36 "HgN/A
8:50 PM52 °FCool.6 mph62%30.36 "HgN/A
7:50 PM55 °FRefreshingly cool.7 mph51%30.33 "HgN/A
6:50 PM57 °FRefreshingly cool.7 mph48%30.33 "HgN/A
5:50 PM59 °FRefreshingly cool.8 mph42%30.36 "HgN/A
4:50 PM59 °FScattered clouds.8 mph42%30.36 "HgN/A
3:50 PM57 °FScattered clouds.8 mph44%30.39 "HgN/A
2:50 PM57 °FPartly sunny.8 mph44%30.42 "HgN/A
1:50 PM55 °FSunny.5 mph44%30.42 "Hg10 mi
12:50 PM55 °FSunny.7 mph41%30.42 "Hg10 mi
11:50 AM54 °FSunny.9 mph41%30.42 "Hg10 mi
10:50 AM52 °FSunny.10 mph38%30.42 "Hg10 mi
9:50 AM48 °FSunny.6 mph66%30.42 "Hg10 mi
8:50 AM45 °FSunny.6 mph76%30.42 "Hg10 mi
7:50 AM37 °FSunny.2 mph93%30.42 "Hg10 mi
6:50 AM32 °FClear.2 mph100%30.42 "Hg10 mi
Weather by CustomWeather, © 2014

See weather overview